Tracking 31027 objects as of 19-Jul-2025
HD Live streaming from Space Station
objects crossing your sky now

STARLINK-1224

Track STARLINK-1224 now!
10-day predictions
STARLINK-1224 is classified as:


NORAD ID: 45186
Int'l Code: 2020-012J
Perigee: 349.2 km
Apogee: 358.9 km
Inclination: 53.0 °
Period: 91.5 minutes
Semi major axis: 6725 km
RCS: Unknown
Launch date: February 17, 2020
Source: United States (US)
Launch site: AIR FORCE EASTERN TEST RANGE (AFETR)
Your satellite tracking list
ST5-A
Track 1 satellite(s)




NASA's NSSDC Master Catalog

Two Line Element Set (TLE):
1 45186U 20012J   25199.91668981  .00283544  00000-0  18730-2 0  9990
2 45186  53.0492 356.9603 0007210 261.4984  91.6574 15.74198700299223
Source of the keplerian elements: AFSPC